FW0765 Weather Reports


Display with metric or nautical units.
time (UTC)temp
F
wind
direction
speed
MPH
gust
MPH
rain 1hr
in
rain 24hr
in
rain mn
in
humidity
%
barometer
mb
20190323214943 79 270 12.0 16.0 0.00 0.00 0.00 21 1012.4
20190323213423 79 237 12.0 18.0 0.00 0.00 0.00 23 1012.4
20190323211635 79 265 7.0 15.0 0.00 0.00 0.00 24 1012.4
20190323210108 79 240 13.0 20.0 0.00 0.00 0.00 29 1012.4
20190323204604 78 227 9.0 16.0 0.00 0.00 0.00 27 1012.6
20190323203202 78 259 8.0 18.0 0.00 0.00 0.00 26 1012.8
20190323201649 78 185 6.0 11.0 0.00 0.00 0.00 30 1012.7
20190323200128 78 229 10.0 16.0 0.00 0.00 0.00 31 1012.8
20190323194611 77 254 8.0 15.0 0.00 0.00 0.00 34 1013.1
20190323193055 76 209 5.0 16.0 0.00 0.00 0.00 37 1013.3
20190323191612 77 267 7.0 15.0 0.00 0.00 0.00 39 1013.8
20190323190100 76 229 5.0 16.0 0.00 0.00 0.00 44 1014.0
20190323184653 75 231 6.0 15.0 0.00 0.00 0.00 44 1014.2
20190323183036 75 254 9.0 18.0 0.00 0.00 0.00 39 1014.5
20190323181540 75 185 7.0 14.0 0.00 0.00 0.00 44 1014.7
20190323180116 74 218 8.0 13.0 0.00 0.00 0.00 47 1015.0
20190323174525 73 211 6.0 11.0 0.00 0.00 0.00 50 1015.1
20190323173028 72 239 8.0 12.0 0.00 0.00 0.00 51 1015.1
20190323171520 72 223 7.0 15.0 0.00 0.00 0.00 58 1015.4
20190323170058 72 240 7.0 12.0 0.00 0.00 0.00 58 1015.6
20190323164515 71 201 9.0 17.0 0.00 0.00 0.00 60 1015.7
20190323161506 69 234 10.0 17.0 0.00 0.00 0.00 68 1015.8
20190323160001 69 195 8.0 16.0 0.00 0.00 0.00 70 1015.6
20190323154659 68 232 8.0 17.0 0.00 0.00 0.00 71 1015.6
20190323153234 67 227 8.0 18.0 0.00 0.00 0.00 74 1015.6
20190323151745 67 173 12.0 19.0 0.00 0.00 0.00 74 1015.5
20190323150212 66 167 10.0 18.0 0.00 0.00 0.00 76 1015.3
20190323144649 65 223 9.0 16.0 0.00 0.00 0.00 77 1015.3
20190323143152 64 229 8.0 15.0 0.00 0.00 0.00 79 1015.2
20190323141614 64 188 7.0 13.0 0.00 0.00 0.00 80 1014.9
20190323140045 62 190 4.0 8.0 0.00 0.00 0.00 83 1014.8
20190323134742 61 200 4.0 8.0 0.00 0.00 0.00 84 1014.9
20190323133112 60 182 3.0 6.0 0.00 0.00 0.00 85 1014.7
20190323131605 60 197 5.0 9.0 0.00 0.00 0.00 85 1014.6
20190323130100 60 222 3.0 8.0 0.00 0.00 0.00 85 1014.5
20190323124559 60 184 5.0 9.0 0.00 0.00 0.00 84 1014.2
20190323123044 60 194 5.0 11.0 0.00 0.00 0.00 84 1014.0
20190323121557 60 184 4.0 10.0 0.00 0.00 0.00 84 1013.8
20190323120039 59 168 5.0 8.0 0.00 0.00 0.00 85 1013.8
20190323114537 58 161 5.0 8.0 0.00 0.00 0.00 86 1013.7
20190323113132 58 157 1.0 5.0 0.00 0.00 0.00 84 1013.6
20190323111543 59 157 2.0 5.0 0.00 0.00 0.00 82 1013.6
20190323110041 59 157 2.0 3.0 0.00 0.00 0.00 83 1013.8
20190323104647 59 157 2.0 5.0 0.00 0.00 0.00 82 1013.9
20190323103035 60 157 2.0 7.0 0.00 0.00 0.00 81 1013.7
20190323101522 60 157 2.0 6.0 0.00 0.00 0.00 80 1013.7
20190323100038 61 155 4.0 8.0 0.00 0.00 0.00 80 1013.8